World > North America > United States > Wisconsin

Green Lake, Wisconsin Regional Weather

Lat: 43.84N, Lon: 88.96W
Wx Zone: WIZ047
Feedback

Green Lake, WI Regional Weather

Expires:201908212300;;002647
ASUS43 KMKX 212200
RWRWI 

WISCONSIN REGIONAL WEATHER ROUNDUP
NATIONAL WEATHER SERVICE MILWAUKEE/SULLIVAN WI
500 PM CDT WED AUG 21 2019

NOTE: "FAIR" INDICATES FEW OR NO CLOUDS BELOW 12,000 FEET WITH NO
SIGNIFICANT WEATHER AND/OR OBSTRUCTIONS TO VISIBILITY.


WIZ029-030-035-036-043>047-212300-
CENTRAL WISCONSIN
  
CITY           SKY/WX    TMP DP  RH WIND       PRES   REMARKS
WAUSAU         FAIR      72  44  36 NW10G22   29.99R                  
MOSINEE        MOSUNNY   72  48  43 NW12      30.02R                  
MARSHFIELD     FAIR      73  50  44 NW13      30.02R                  
STEVENS POINT  FAIR      73  49  43 NW8       30.00S                  
WAUPACA        FAIR      78  49  36 NW5       29.98R                  
WAUTOMA        FAIR      76  52  43 NW7       29.99S                  
WISC RAPIDS    FAIR      75  50  41 N13       30.00S                  
CAMP DOUGLAS   NOT AVBL                                               
$$
 

SKY/WX - Weather  TMP - Temperature  DP - Dew Point  RH - Relative Humidity
WIND - Wind Direction/Speed PRES - Barometric Pressure VSB - Visibility
WCI - Wind Chill Index E13G22 Wind - East Wind 13 mph/Gusts of 22 mph